User: anonymous   Login
Location: Caltech
(34.1382°N, 118.1253°W)
Time: 19:22:15
(UTC-07:00)
Language:

Cosmos 44 Rocket - Orbit

View from above orbital plane
View from above orbital plane
View from above satellite
View from above satellite

Ground track
Ground track

The orbit data is extracted from the following two-line orbital elements,

1 00877U 64053B   16178.70660177 -.00000076  00000-0  99462-5 0  9996
2 00877  65.0779 250.9792 0082892 254.3024 104.8919 14.59245974749643
Epoch (UTC): 26 June 2016 16:57:30
Eccentricity: 0.0082892
inclination: 65.0779°
perigee height: 637 km
apogee height: 754 km
right ascension of ascending node: 250.9792°
argument of perigee: 254.3024°
revolutions per day: 14.59245974
mean anomaly at epoch: 104.8919°
orbit number at epoch: 74964

The dashed part of the orbit path shows where the satellite is in the earth's shadow,  

DLR